TimeEDT,TemperatureF,Dew PointF,Humidity,Sea Level PressureIn,VisibilityMPH,Wind Direction,Wind SpeedMPH,Gust SpeedMPH,PrecipitationIn,Events,Conditions,WindDirDegrees,DateUTC
1:54 AM,66.0,60.1,81,29.85,10.0,South,6.9,-,N/A,,Clear,190,2012-10-14 05:54:00
2:54 AM,66.0,60.1,81,29.83,10.0,South,11.5,21.9,N/A,,Mostly Cloudy,190,2012-10-14 06:54:00
3:54 AM,66.9,61.0,81,29.81,10.0,South,13.8,24.2,N/A,,Overcast,190,2012-10-14 07:54:00
4:54 AM,68.0,61.0,78,29.79,10.0,South,15.0,23.0,N/A,,Partly Cloudy,190,2012-10-14 08:54:00
5:54 AM,66.9,61.0,81,29.77,10.0,South,15.0,25.3,N/A,,Mostly Cloudy,190,2012-10-14 09:54:00
6:54 AM,66.9,61.0,81,29.75,10.0,SSW,10.4,23.0,N/A,,Overcast,210,2012-10-14 10:54:00
7:54 AM,66.0,62.1,87,29.73,10.0,SSW,8.1,16.1,0.02,,Overcast,200,2012-10-14 11:54:00
8:27 AM,66.2,62.6,88,29.70,9.0,South,12.7,21.9,N/A,,Mostly Cloudy,190,2012-10-14 12:27:00
8:54 AM,66.9,61.0,81,29.67,10.0,South,15.0,25.3,0.00,,Overcast,190,2012-10-14 12:54:00
9:54 AM,68.0,60.1,76,29.65,10.0,South,19.6,31.1,N/A,,Scattered Clouds,190,2012-10-14 13:54:00
10:54 AM,69.1,60.1,73,29.67,10.0,SW,15.0,31.1,N/A,,Scattered Clouds,220,2012-10-14 14:54:00
11:14 AM,69.8,60.8,73,29.68,10.0,SW,17.3,28.8,N/A,,Mostly Cloudy,230,2012-10-14 15:14:00
11:32 AM,69.8,60.8,73,29.67,10.0,SSW,11.5,26.5,N/A,,Overcast,210,2012-10-14 15:32:00
11:54 AM,69.1,59.0,70,29.66,10.0,SSW,17.3,25.3,N/A,,Overcast,210,2012-10-14 15:54:00
12:54 PM,71.1,59.0,66,29.64,10.0,SW,19.6,38.0,N/A,,Mostly Cloudy,220,2012-10-14 16:54:00
1:54 PM,71.1,55.9,59,29.62,10.0,WSW,20.7,31.1,0.00,,Mostly Cloudy,240,2012-10-14 17:54:00
2:54 PM,70.0,55.0,59,29.59,10.0,SW,21.9,36.8,N/A,,Mostly Cloudy,230,2012-10-14 18:54:00
4:54 PM,71.1,54.0,55,29.55,10.0,SW,17.3,29.9,N/A,,Mostly Cloudy,220,2012-10-14 20:54:00
5:54 PM,66.9,55.9,68,29.55,10.0,SW,15.0,31.1,0.00,Rain,Light Rain,220,2012-10-14 21:54:00
6:01 PM,64.4,57.2,77,29.59,1.5,WSW,21.9,35.7,0.11,Rain,Heavy Rain,250,2012-10-14 22:01:00
6:17 PM,62.6,57.2,82,29.58,10.0,WSW,16.1,23.0,0.13,Rain,Light Rain,250,2012-10-14 22:17:00
6:41 PM,62.6,57.2,82,29.59,10.0,West,17.3,26.5,0.13,,Mostly Cloudy,260,2012-10-14 22:41:00
6:54 PM,62.1,57.0,84,29.59,10.0,West,19.6,31.1,0.13,,Overcast,260,2012-10-14 22:54:00
7:54 PM,57.0,51.1,81,29.66,10.0,West,29.9,43.7,0.02,,Overcast,280,2012-10-14 23:54:00
8:54 PM,55.0,50.0,83,29.72,10.0,WNW,24.2,39.1,N/A,,Overcast,290,2012-10-15 00:54:00
9:54 PM,53.1,48.0,83,29.75,10.0,WNW,18.4,33.4,N/A,,Overcast,290,2012-10-15 01:54:00
10:19 PM,51.8,48.2,88,29.77,8.0,WNW,17.3,25.3,N/A,,Overcast,290,2012-10-15 02:19:00
10:54 PM,52.0,48.0,86,29.79,10.0,West,15.0,24.2,N/A,,Overcast,280,2012-10-15 02:54:00
11:54 PM,52.0,46.9,83,29.82,10.0,West,13.8,21.9,N/A,,Overcast,280,2012-10-15 03:54:00